| time (UTC) | temp C | wind direction | speed KPH | gust KPH | rain 1hr cm | rain 24hr cm | rain mn cm | humidity % | barometer mb |
| 20260505153308 | 23 | 249 | 4.8 | 4.8 | 0.00 | 0.00 | 0.00 | 54 | 1016.8 |
| 20260505152805 | 23 | 244 | 3.2 | 4.8 | 0.00 | 0.00 | 0.00 | 55 | 1016.7 |
| 20260505152304 | 23 | 187 | 0.0 | 0.0 | 0.00 | 0.00 | 0.00 | 56 | 1016.6 |
| 20260505151755 | 23 | 230 | 3.2 | 4.8 | 0.00 | 0.00 | 0.00 | 57 | 1016.8 |
| 20260505151253 | 23 | 216 | 1.6 | 1.6 | 0.00 | 0.00 | 0.00 | 57 | 1016.7 |
| 20260505150750 | 23 | 231 | 3.2 | 3.2 | 0.00 | 0.00 | 0.00 | 57 | 1016.7 |
| 20260505150248 | 23 | 212 | 1.6 | 1.6 | 0.00 | 0.00 | 0.00 | 59 | 1017.1 |
| 20260505140217 | 21 | 44 | 1.6 | 1.6 | 0.00 | 0.00 | 0.00 | 65 | 1016.8 |
| 20260505130141 | 18 | 233 | 3.2 | 3.2 | 0.00 | 0.00 | 0.00 | 72 | 1016.6 |
| 20260505124631 | 17 | 243 | 3.2 | 3.2 | 0.00 | 0.00 | 0.00 | 72 | 1016.7 |
| 20260505124127 | 17 | 201 | 1.6 | 1.6 | 0.00 | 0.00 | 0.00 | 73 | 1016.7 |
| 20260505123623 | 17 | 202 | 0.0 | 1.6 | 0.00 | 0.00 | 0.00 | 73 | 1016.5 |
| 20260505123120 | 16 | 182 | 1.6 | 1.6 | 0.00 | 0.00 | 0.00 | 75 | 1016.7 |
| 20260505122617 | 16 | 231 | 1.6 | 1.6 | 0.00 | 0.00 | 0.00 | 75 | 1016.9 |
| 20260505122114 | 16 | 195 | 0.0 | 1.6 | 0.00 | 0.00 | 0.00 | 76 | 1017.0 |
| 20260505121610 | 15 | 193 | 0.0 | 0.0 | 0.00 | 0.00 | 0.00 | 78 | 1017.1 |
| 20260505121107 | 15 | 197 | 0.0 | 0.0 | 0.00 | 0.00 | 0.00 | 79 | 1016.8 |
| 20260505120604 | 15 | 174 | 0.0 | 0.0 | 0.00 | 0.00 | 0.00 | 79 | 1017.0 |
| 20260505120100 | 15 | 173 | 0.0 | 0.0 | 0.00 | 0.00 | 0.00 | 82 | 1016.8 |
| 20260505115554 | 14 | 173 | 0.0 | 0.0 | 0.00 | 0.00 | 0.00 | 86 | 1016.8 |
| 20260505115052 | 13 | 173 | 1.6 | 1.6 | 0.00 | 0.00 | 0.00 | 90 | 1016.8 |
| 20260505114549 | 12 | 175 | 0.0 | 0.0 | 0.00 | 0.00 | 0.00 | 92 | 1016.7 |
| 20260505114045 | 12 | 177 | 0.0 | 0.0 | 0.00 | 0.00 | 0.00 | 93 | 1016.8 |
| 20260505113541 | 12 | 177 | 0.0 | 0.0 | 0.00 | 0.00 | 0.00 | 93 | 1016.7 |
| 20260505113038 | 11 | 177 | 0.0 | 0.0 | 0.00 | 0.00 | 0.00 | 93 | 1016.6 |
| 20260505112534 | 11 | 177 | 0.0 | 0.0 | 0.00 | 0.00 | 0.00 | 93 | 1016.5 |
| 20260505112032 | 11 | 177 | 0.0 | 0.0 | 0.00 | 0.00 | 0.00 | 93 | 1016.5 |
| 20260505111526 | 11 | 177 | 0.0 | 0.0 | 0.00 | 0.00 | 0.00 | 93 | 1016.4 |
| 20260505111023 | 11 | 179 | 0.0 | 0.0 | 0.00 | 0.00 | 0.00 | 93 | 1016.3 |
| 20260505110519 | 10 | 180 | 0.0 | 0.0 | 0.00 | 0.00 | 0.00 | 93 | 1016.2 |
| 20260505101952 | 10 | 181 | 0.0 | 0.0 | 0.00 | 0.00 | 0.00 | 91 | 1015.7 |
| 20260505101450 | 10 | 181 | 0.0 | 0.0 | 0.00 | 0.00 | 0.00 | 91 | 1015.7 |
| 20260505100946 | 10 | 181 | 0.0 | 0.0 | 0.00 | 0.00 | 0.00 | 90 | 1015.6 |
| 20260505100443 | 10 | 181 | 0.0 | 0.0 | 0.00 | 0.00 | 0.00 | 90 | 1015.4 |
| 20260505095939 | 10 | 181 | 0.0 | 0.0 | 0.00 | 0.00 | 0.00 | 90 | 1015.6 |
| 20260505095436 | 10 | 181 | 0.0 | 0.0 | 0.00 | 0.00 | 0.00 | 89 | 1015.4 |
| 20260505094932 | 10 | 181 | 0.0 | 0.0 | 0.00 | 0.00 | 0.00 | 89 | 1015.5 |
| 20260505094429 | 10 | 181 | 0.0 | 0.0 | 0.00 | 0.00 | 0.00 | 89 | 1015.4 |
| 20260505093925 | 10 | 181 | 0.0 | 0.0 | 0.00 | 0.00 | 0.00 | 88 | 1015.6 |
| 20260505093422 | 10 | 181 | 0.0 | 0.0 | 0.00 | 0.00 | 0.00 | 88 | 1015.6 |
| 20260505092919 | 11 | 181 | 0.0 | 0.0 | 0.00 | 0.00 | 0.00 | 88 | 1015.3 |
| 20260505092417 | 11 | 181 | 0.0 | 0.0 | 0.00 | 0.00 | 0.00 | 87 | 1015.2 |
| 20260505091914 | 11 | 181 | 0.0 | 0.0 | 0.00 | 0.00 | 0.00 | 87 | 1015.4 |
| 20260505091412 | 11 | 181 | 0.0 | 0.0 | 0.00 | 0.00 | 0.00 | 86 | 1015.4 |
| 20260505090910 | 11 | 181 | 0.0 | 0.0 | 0.00 | 0.00 | 0.00 | 86 | 1015.3 |
| 20260505090408 | 11 | 181 | 0.0 | 0.0 | 0.00 | 0.00 | 0.00 | 85 | 1015.4 |
| 20260505085905 | 11 | 181 | 0.0 | 0.0 | 0.00 | 0.00 | 0.00 | 84 | 1015.3 |
| 20260505085403 | 11 | 181 | 0.0 | 0.0 | 0.00 | 0.00 | 0.00 | 84 | 1015.2 |
| 20260505084901 | 12 | 181 | 0.0 | 0.0 | 0.00 | 0.00 | 0.00 | 84 | 1015.3 |
| 20260505084359 | 12 | 181 | 0.0 | 0.0 | 0.00 | 0.00 | 0.00 | 83 | 1015.1 |
| 20260505083856 | 12 | 181 | 0.0 | 0.0 | 0.00 | 0.00 | 0.00 | 82 | 1015.3 |
| 20260505083354 | 12 | 181 | 0.0 | 0.0 | 0.00 | 0.00 | 0.00 | 81 | 1015.1 |
| 20260505082849 | 12 | 180 | 0.0 | 0.0 | 0.00 | 0.00 | 0.00 | 81 | 1014.9 |
| 20260505082346 | 12 | 184 | 0.0 | 0.0 | 0.00 | 0.00 | 0.00 | 81 | 1015.3 |
| 20260505081842 | 12 | 184 | 0.0 | 0.0 | 0.00 | 0.00 | 0.00 | 81 | 1015.1 |
| 20260505081339 | 12 | 184 | 0.0 | 0.0 | 0.00 | 0.00 | 0.00 | 80 | 1015.0 |
| 20260505080836 | 12 | 184 | 0.0 | 0.0 | 0.00 | 0.00 | 0.00 | 79 | 1014.9 |
| 20260505080332 | 13 | 184 | 0.0 | 0.0 | 0.00 | 0.00 | 0.00 | 79 | 1014.8 |
| 20260505075827 | 13 | 184 | 0.0 | 0.0 | 0.00 | 0.00 | 0.00 | 79 | 1014.8 |
| 20260505075325 | 13 | 183 | 0.0 | 0.0 | 0.00 | 0.00 | 0.00 | 79 | 1014.9 |
| 20260505074822 | 13 | 198 | 0.0 | 0.0 | 0.00 | 0.00 | 0.00 | 78 | 1014.9 |
| 20260505074319 | 13 | 200 | 1.6 | 1.6 | 0.00 | 0.00 | 0.00 | 78 | 1014.9 |
| 20260505073816 | 13 | 196 | 0.0 | 0.0 | 0.00 | 0.00 | 0.00 | 78 | 1014.7 |
| 20260505073314 | 13 | 191 | 0.0 | 0.0 | 0.00 | 0.00 | 0.00 | 77 | 1014.7 |
| 20260505072811 | 13 | 191 | 0.0 | 0.0 | 0.00 | 0.00 | 0.00 | 77 | 1014.9 |
| 20260505072307 | 13 | 187 | 0.0 | 0.0 | 0.00 | 0.00 | 0.00 | 77 | 1014.9 |
| 20260505071803 | 13 | 195 | 0.0 | 0.0 | 0.00 | 0.00 | 0.00 | 77 | 1014.7 |
| 20260505071300 | 13 | 191 | 0.0 | 0.0 | 0.00 | 0.00 | 0.00 | 77 | 1014.8 |
| 20260505070758 | 13 | 191 | 0.0 | 0.0 | 0.00 | 0.00 | 0.00 | 77 | 1014.7 |
| 20260505070254 | 13 | 184 | 0.0 | 0.0 | 0.00 | 0.00 | 0.00 | 77 | 1014.7 |
| 20260505065749 | 13 | 184 | 0.0 | 0.0 | 0.00 | 0.00 | 0.00 | 76 | 1014.8 |
| 20260505065246 | 13 | 187 | 0.0 | 0.0 | 0.00 | 0.00 | 0.00 | 76 | 1014.7 |
| 20260505064743 | 14 | 188 | 0.0 | 0.0 | 0.00 | 0.00 | 0.00 | 75 | 1014.7 |
| 20260505064241 | 14 | 186 | 0.0 | 0.0 | 0.00 | 0.00 | 0.00 | 75 | 1014.7 |
| 20260505063738 | 14 | 187 | 0.0 | 0.0 | 0.00 | 0.00 | 0.00 | 74 | 1014.7 |
| 20260505063234 | 15 | 187 | 0.0 | 0.0 | 0.00 | 0.00 | 0.00 | 74 | 1014.6 |
| 20260505062730 | 15 | 186 | 0.0 | 0.0 | 0.00 | 0.00 | 0.00 | 73 | 1014.9 |
| 20260505062228 | 15 | 105 | 0.0 | 1.6 | 0.00 | 0.00 | 0.00 | 73 | 1014.6 |
| 20260505061725 | 15 | 182 | 1.6 | 1.6 | 0.00 | 0.00 | 0.00 | 74 | 1014.8 |
| 20260505061223 | 15 | 189 | 0.0 | 0.0 | 0.00 | 0.00 | 0.00 | 74 | 1014.9 |
| 20260505060720 | 15 | 198 | 0.0 | 0.0 | 0.00 | 0.00 | 0.00 | 73 | 1014.8 |
| 20260505060217 | 15 | 206 | 0.0 | 0.0 | 0.00 | 0.00 | 0.00 | 73 | 1014.6 |
| 20260505055712 | 15 | 214 | 0.0 | 1.6 | 0.00 | 0.00 | 0.00 | 72 | 1014.8 |
| 20260505055209 | 15 | 187 | 0.0 | 0.0 | 0.00 | 0.00 | 0.00 | 72 | 1014.7 |
| 20260505054707 | 15 | 201 | 0.0 | 1.6 | 0.00 | 0.00 | 0.00 | 71 | 1014.8 |
| 20260505054204 | 15 | 187 | 0.0 | 0.0 | 0.00 | 0.00 | 0.00 | 71 | 1014.7 |
| 20260505053702 | 15 | 211 | 0.0 | 0.0 | 0.00 | 0.00 | 0.00 | 70 | 1014.9 |
| 20260505053158 | 15 | 190 | 0.0 | 0.0 | 0.00 | 0.00 | 0.00 | 71 | 1014.8 |
| 20260505052655 | 15 | 221 | 3.2 | 3.2 | 0.00 | 0.00 | 0.00 | 72 | 1014.8 |
| 20260505052153 | 15 | 193 | 0.0 | 0.0 | 0.00 | 0.00 | 0.00 | 72 | 1014.8 |
| 20260505051650 | 16 | 202 | 0.0 | 1.6 | 0.00 | 0.00 | 0.00 | 72 | 1015.0 |
| 20260505051148 | 16 | 190 | 0.0 | 0.0 | 0.00 | 0.00 | 0.00 | 71 | 1015.0 |
| 20260505050645 | 16 | 213 | 1.6 | 1.6 | 0.00 | 0.00 | 0.00 | 71 | 1015.1 |
| 20260505050143 | 16 | 95 | 0.0 | 1.6 | 0.00 | 0.00 | 0.00 | 70 | 1015.1 |
| 20260505041613 | 16 | 198 | 1.6 | 3.2 | 0.00 | 0.00 | 0.00 | 69 | 1014.8 |
| 20260505041110 | 16 | 167 | 1.6 | 1.6 | 0.00 | 0.00 | 0.00 | 68 | 1014.8 |
| 20260505040607 | 17 | 203 | 0.0 | 0.0 | 0.00 | 0.00 | 0.00 | 68 | 1014.8 |
| 20260505040104 | 17 | 184 | 1.6 | 1.6 | 0.00 | 0.00 | 0.00 | 68 | 1014.9 |
| 20260505035601 | 17 | 198 | 0.0 | 0.0 | 0.00 | 0.00 | 0.00 | 67 | 1014.8 |
| 20260505035057 | 17 | 172 | 1.6 | 1.6 | 0.00 | 0.00 | 0.00 | 67 | 1015.0 |
| 20260505034554 | 17 | 222 | 1.6 | 1.6 | 0.00 | 0.00 | 0.00 | 66 | 1014.7 |
| 20260505034050 | 17 | 207 | 1.6 | 1.6 | 0.00 | 0.00 | 0.00 | 66 | 1014.8 |
| 20260505033547 | 17 | 199 | 0.0 | 1.6 | 0.00 | 0.00 | 0.00 | 66 | 1014.8 |
| 20260505033046 | 17 | 191 | 1.6 | 1.6 | 0.00 | 0.00 | 0.00 | 66 | 1014.9 |
| 20260505032543 | 17 | 216 | 1.6 | 1.6 | 0.00 | 0.00 | 0.00 | 66 | 1014.8 |
| 20260505032039 | 17 | 198 | 1.6 | 3.2 | 0.00 | 0.00 | 0.00 | 66 | 1014.8 |
| 20260505031537 | 17 | 180 | 3.2 | 3.2 | 0.00 | 0.00 | 0.00 | 65 | 1014.9 |
| 20260505031033 | 18 | 181 | 1.6 | 3.2 | 0.00 | 0.00 | 0.00 | 65 | 1014.7 |
| 20260505030530 | 18 | 208 | 1.6 | 1.6 | 0.00 | 0.00 | 0.00 | 65 | 1014.8 |
| 20260505030026 | 18 | 206 | 3.2 | 3.2 | 0.00 | 0.00 | 0.00 | 65 | 1014.9 |
| 20260505025522 | 18 | 203 | 1.6 | 1.6 | 0.00 | 0.00 | 0.00 | 65 | 1014.7 |
| 20260505025022 | 18 | 155 | 1.6 | 1.6 | 0.00 | 0.00 | 0.00 | 65 | 1014.9 |
| 20260505024518 | 18 | 192 | 0.0 | 0.0 | 0.00 | 0.00 | 0.00 | 64 | 1015.0 |
| 20260505024015 | 18 | 206 | 0.0 | 1.6 | 0.00 | 0.00 | 0.00 | 63 | 1014.7 |
| 20260505023512 | 18 | 207 | 3.2 | 4.8 | 0.00 | 0.00 | 0.00 | 63 | 1014.7 |
| 20260505023010 | 18 | 186 | 1.6 | 3.2 | 0.00 | 0.00 | 0.00 | 64 | 1014.7 |
| 20260505022507 | 18 | 194 | 3.2 | 3.2 | 0.00 | 0.00 | 0.00 | 63 | 1014.6 |
| 20260505022004 | 19 | 206 | 1.6 | 3.2 | 0.00 | 0.00 | 0.00 | 63 | 1014.8 |
| 20260505021500 | 19 | 173 | 3.2 | 4.8 | 0.00 | 0.00 | 0.00 | 63 | 1014.5 |
| 20260505020956 | 19 | 201 | 3.2 | 3.2 | 0.00 | 0.00 | 0.00 | 61 | 1014.7 |
| 20260505020451 | 19 | 235 | 3.2 | 4.8 | 0.00 | 0.00 | 0.00 | 62 | 1014.6 |
| 20260505015948 | 20 | 197 | 1.6 | 1.6 | 0.00 | 0.00 | 0.00 | 62 | 1014.5 |
| 20260505015446 | 20 | 196 | 1.6 | 3.2 | 0.00 | 0.00 | 0.00 | 61 | 1014.6 |
| 20260505014943 | 20 | 205 | 1.6 | 3.2 | 0.00 | 0.00 | 0.00 | 60 | 1014.5 |
| 20260505014440 | 20 | 196 | 1.6 | 1.6 | 0.00 | 0.00 | 0.00 | 59 | 1014.5 |
| 20260505013937 | 20 | 152 | 4.8 | 9.7 | 0.00 | 0.00 | 0.00 | 58 | 1014.3 |
| 20260505013434 | 20 | 181 | 4.8 | 4.8 | 0.00 | 0.00 | 0.00 | 56 | 1014.3 |
| 20260505012931 | 20 | 210 | 3.2 | 4.8 | 0.00 | 0.00 | 0.00 | 54 | 1014.1 |
| 20260505012429 | 20 | 204 | 0.0 | 0.0 | 0.00 | 0.00 | 0.00 | 51 | 1014.0 |
| 20260505011926 | 20 | 189 | 1.6 | 1.6 | 0.00 | 0.00 | 0.00 | 49 | 1014.1 |
| 20260505011422 | 20 | 205 | 1.6 | 1.6 | 0.00 | 0.00 | 0.00 | 48 | 1013.9 |
| 20260505010919 | 20 | 183 | 0.0 | 0.0 | 0.00 | 0.00 | 0.00 | 49 | 1013.8 |
| 20260505010414 | 19 | 193 | 0.0 | 0.0 | 0.00 | 0.00 | 0.00 | 50 | 1013.6 |
| 20260505005910 | 19 | 196 | 0.0 | 0.0 | 0.00 | 0.00 | 0.00 | 49 | 1013.7 |
| 20260505005408 | 20 | 184 | 0.0 | 0.0 | 0.00 | 0.00 | 0.00 | 49 | 1013.6 |
| 20260505004905 | 20 | 184 | 0.0 | 0.0 | 0.00 | 0.00 | 0.00 | 48 | 1013.4 |
| 20260505004402 | 20 | 187 | 0.0 | 0.0 | 0.00 | 0.00 | 0.00 | 48 | 1013.5 |
| 20260505003859 | 20 | 198 | 0.0 | 0.0 | 0.00 | 0.00 | 0.00 | 48 | 1013.5 |
| 20260505003356 | 20 | 192 | 0.0 | 1.6 | 0.00 | 0.00 | 0.00 | 48 | 1013.4 |
| 20260505002852 | 20 | 193 | 0.0 | 0.0 | 0.00 | 0.00 | 0.00 | 47 | 1013.2 |
| 20260505002349 | 20 | 185 | 0.0 | 0.0 | 0.00 | 0.00 | 0.00 | 47 | 1013.2 |
| 20260505001847 | 20 | 186 | 0.0 | 0.0 | 0.00 | 0.00 | 0.00 | 47 | 1013.2 |
| 20260505001344 | 20 | 190 | 0.0 | 0.0 | 0.00 | 0.00 | 0.00 | 46 | 1013.3 |
| 20260505000841 | 21 | 189 | 0.0 | 0.0 | 0.00 | 0.00 | 0.00 | 46 | 1013.3 |
| 20260505000339 | 21 | 198 | 0.0 | 0.0 | 0.00 | 0.00 | 0.00 | 45 | 1013.3 |
| 20260504235835 | 21 | 207 | 0.0 | 0.0 | 0.00 | 0.00 | 0.00 | 44 | 1013.1 |
| 20260504235332 | 21 | 177 | 0.0 | 1.6 | 0.00 | 0.00 | 0.00 | 43 | 1013.2 |
| 20260504234829 | 22 | 192 | 0.0 | 0.0 | 0.00 | 0.00 | 0.00 | 42 | 1013.1 |
| 20260504234327 | 22 | 185 | 0.0 | 1.6 | 0.00 | 0.00 | 0.00 | 42 | 1013.2 |
| 20260504233823 | 22 | 200 | 0.0 | 0.0 | 0.00 | 0.00 | 0.00 | 40 | 1013.1 |
| 20260504233319 | 23 | 187 | 0.0 | 1.6 | 0.00 | 0.00 | 0.00 | 40 | 1012.8 |
| 20260504232815 | 23 | 195 | 0.0 | 1.6 | 0.00 | 0.00 | 0.00 | 39 | 1012.8 |
| 20260504232313 | 23 | 174 | 0.0 | 0.0 | 0.00 | 0.00 | 0.00 | 38 | 1012.8 |
| 20260504231810 | 23 | 213 | 1.6 | 1.6 | 0.00 | 0.00 | 0.00 | 38 | 1012.7 |
| 20260504231306 | 23 | 204 | 0.0 | 1.6 | 0.00 | 0.00 | 0.00 | 37 | 1012.5 |
| 20260504230802 | 24 | 191 | 0.0 | 0.0 | 0.00 | 0.00 | 0.00 | 38 | 1012.8 |
| 20260504230300 | 24 | 130 | 1.6 | 1.6 | 0.00 | 0.00 | 0.00 | 36 | 1012.6 |
| 20260504225759 | 24 | 228 | 1.6 | 1.6 | 0.00 | 0.00 | 0.00 | 37 | 1012.4 |
| 20260504225255 | 24 | 214 | 0.0 | 1.6 | 0.00 | 0.00 | 0.00 | 36 | 1012.6 |
| 20260504224752 | 24 | 234 | 3.2 | 3.2 | 0.00 | 0.00 | 0.00 | 37 | 1012.6 |
| 20260504224249 | 25 | 206 | 1.6 | 1.6 | 0.00 | 0.00 | 0.00 | 36 | 1012.6 |
| 20260504223745 | 25 | 229 | 1.6 | 3.2 | 0.00 | 0.00 | 0.00 | 35 | 1012.6 |
| 20260504223241 | 25 | 221 | 1.6 | 3.2 | 0.00 | 0.00 | 0.00 | 34 | 1012.5 |
| 20260504222738 | 25 | 183 | 0.0 | 0.0 | 0.00 | 0.00 | 0.00 | 35 | 1012.5 |
| 20260504222235 | 25 | 235 | 1.6 | 3.2 | 0.00 | 0.00 | 0.00 | 34 | 1012.4 |
| 20260504221732 | 25 | 187 | 1.6 | 1.6 | 0.00 | 0.00 | 0.00 | 35 | 1012.6 |
| 20260504221229 | 25 | 226 | 1.6 | 1.6 | 0.00 | 0.00 | 0.00 | 32 | 1012.6 |
| 20260504220726 | 25 | 209 | 1.6 | 1.6 | 0.00 | 0.00 | 0.00 | 31 | 1012.3 |
| 20260504220223 | 25 | 207 | 1.6 | 1.6 | 0.00 | 0.00 | 0.00 | 32 | 1012.6 |
| 20260504215720 | 25 | 206 | 1.6 | 1.6 | 0.00 | 0.00 | 0.00 | 31 | 1012.5 |
| 20260504215217 | 25 | 219 | 1.6 | 3.2 | 0.00 | 0.00 | 0.00 | 31 | 1012.7 |
| 20260504214713 | 25 | 218 | 1.6 | 1.6 | 0.00 | 0.00 | 0.00 | 31 | 1012.6 |
| 20260504214209 | 25 | 197 | 1.6 | 1.6 | 0.00 | 0.00 | 0.00 | 34 | 1012.4 |
| 20260504213706 | 25 | 184 | 3.2 | 4.8 | 0.00 | 0.00 | 0.00 | 33 | 1012.6 |
| 20260504213203 | 25 | 200 | 3.2 | 3.2 | 0.00 | 0.00 | 0.00 | 30 | 1012.5 |
| 20260504212700 | 26 | 200 | 0.0 | 1.6 | 0.00 | 0.00 | 0.00 | 31 | 1012.6 |
| 20260504212156 | 26 | 203 | 1.6 | 1.6 | 0.00 | 0.00 | 0.00 | 31 | 1012.7 |
| 20260504211653 | 25 | 207 | 1.6 | 3.2 | 0.00 | 0.00 | 0.00 | 31 | 1012.7 |
| 20260504211149 | 26 | 329 | 3.2 | 4.8 | 0.00 | 0.00 | 0.00 | 30 | 1013.0 |
| 20260504210648 | 26 | 211 | 1.6 | 1.6 | 0.00 | 0.00 | 0.00 | 29 | 1013.0 |
| 20260504210144 | 26 | 203 | 1.6 | 1.6 | 0.00 | 0.00 | 0.00 | 30 | 1012.7 |
| 20260504205641 | 25 | 301 | 1.6 | 1.6 | 0.00 | 0.00 | 0.00 | 28 | 1012.6 |
| 20260504205138 | 26 | 216 | 0.0 | 0.0 | 0.00 | 0.00 | 0.00 | 29 | 1013.1 |
| 20260504204637 | 25 | 322 | 3.2 | 3.2 | 0.00 | 0.00 | 0.00 | 29 | 1013.0 |
| 20260504204136 | 26 | 208 | 0.0 | 1.6 | 0.00 | 0.00 | 0.00 | 29 | 1013.0 |
| 20260504203634 | 26 | 228 | 1.6 | 3.2 | 0.00 | 0.00 | 0.00 | 29 | 1013.1 |
| 20260504203131 | 25 | 204 | 0.0 | 1.6 | 0.00 | 0.00 | 0.00 | 31 | 1013.0 |
| 20260504202626 | 25 | 228 | 3.2 | 3.2 | 0.00 | 0.00 | 0.00 | 30 | 1013.0 |
| 20260504202123 | 26 | 237 | 3.2 | 3.2 | 0.00 | 0.00 | 0.00 | 28 | 1013.2 |
| 20260504201619 | 25 | 199 | 1.6 | 1.6 | 0.00 | 0.00 | 0.00 | 30 | 1013.4 |
| 20260504201117 | 25 | 225 | 3.2 | 3.2 | 0.00 | 0.00 | 0.00 | 28 | 1013.3 |
| 20260504200615 | 25 | 224 | 6.4 | 9.7 | 0.00 | 0.00 | 0.00 | 32 | 1013.4 |
| 20260504200111 | 26 | 231 | 3.2 | 3.2 | 0.00 | 0.00 | 0.00 | 30 | 1013.3 |
| 20260504195607 | 26 | 222 | 1.6 | 1.6 | 0.00 | 0.00 | 0.00 | 31 | 1013.1 |
| 20260504195103 | 26 | 208 | 3.2 | 4.8 | 0.00 | 0.00 | 0.00 | 29 | 1013.4 |
| 20260504194600 | 26 | 196 | 0.0 | 1.6 | 0.00 | 0.00 | 0.00 | 29 | 1013.3 |
| 20260504194055 | 26 | 222 | 1.6 | 1.6 | 0.00 | 0.00 | 0.00 | 29 | 1013.2 |
| 20260504193552 | 26 | 213 | 4.8 | 8.0 | 0.00 | 0.00 | 0.00 | 29 | 1013.3 |
| 20260504193051 | 26 | 213 | 4.8 | 4.8 | 0.00 | 0.00 | 0.00 | 29 | 1013.7 |
| 20260504192549 | 26 | 166 | 1.6 | 3.2 | 0.00 | 0.00 | 0.00 | 29 | 1013.5 |
| 20260504192047 | 26 | 209 | 0.0 | 0.0 | 0.00 | 0.00 | 0.00 | 28 | 1013.5 |
| 20260504191544 | 26 | 210 | 3.2 | 4.8 | 0.00 | 0.00 | 0.00 | 30 | 1013.8 |
| 20260504191040 | 25 | 229 | 1.6 | 1.6 | 0.00 | 0.00 | 0.00 | 31 | 1013.5 |
| 20260504190537 | 25 | 276 | 6.4 | 9.7 | 0.00 | 0.00 | 0.00 | 31 | 1013.6 |
| 20260504190033 | 26 | 339 | 4.8 | 4.8 | 0.00 | 0.00 | 0.00 | 30 | 1013.9 |
| 20260504185530 | 26 | 220 | 1.6 | 1.6 | 0.00 | 0.00 | 0.00 | 30 | 1014.1 |
| 20260504185026 | 26 | 209 | 1.6 | 1.6 | 0.00 | 0.00 | 0.00 | 31 | 1014.3 |
| 20260504184522 | 26 | 226 | 3.2 | 3.2 | 0.00 | 0.00 | 0.00 | 32 | 1014.0 |
| 20260504184017 | 26 | 235 | 1.6 | 3.2 | 0.00 | 0.00 | 0.00 | 30 | 1014.2 |
| 20260504183515 | 25 | 209 | 3.2 | 3.2 | 0.00 | 0.00 | 0.00 | 31 | 1014.4 |
| 20260504183013 | 25 | 352 | 8.0 | 9.7 | 0.00 | 0.00 | 0.00 | 31 | 1014.1 |
| 20260504182509 | 26 | 242 | 1.6 | 1.6 | 0.00 | 0.00 | 0.00 | 32 | 1014.3 |
| 20260504182007 | 25 | 209 | 1.6 | 1.6 | 0.00 | 0.00 | 0.00 | 33 | 1014.4 |
| 20260504181504 | 25 | 240 | 4.8 | 4.8 | 0.00 | 0.00 | 0.00 | 32 | 1014.0 |
| 20260504181003 | 25 | 213 | 1.6 | 1.6 | 0.00 | 0.00 | 0.00 | 33 | 1014.5 |
| 20260504180501 | 25 | 274 | 4.8 | 8.0 | 0.00 | 0.00 | 0.00 | 33 | 1014.4 |
| 20260504175959 | 25 | 236 | 4.8 | 8.0 | 0.00 | 0.00 | 0.00 | 32 | 1014.5 |
| 20260504175456 | 25 | 210 | 4.8 | 4.8 | 0.00 | 0.00 | 0.00 | 35 | 1014.6 |
| 20260504174953 | 24 | 180 | 0.0 | 1.6 | 0.00 | 0.00 | 0.00 | 34 | 1014.5 |
| 20260504174450 | 25 | 218 | 4.8 | 4.8 | 0.00 | 0.00 | 0.00 | 35 | 1014.6 |
| 20260504173948 | 24 | 225 | 1.6 | 3.2 | 0.00 | 0.00 | 0.00 | 33 | 1014.7 |
| 20260504173444 | 24 | 241 | 4.8 | 4.8 | 0.00 | 0.00 | 0.00 | 33 | 1014.9 |
| 20260504172942 | 25 | 261 | 3.2 | 4.8 | 0.00 | 0.00 | 0.00 | 35 | 1014.6 |
| 20260504172437 | 23 | 285 | 9.7 | 12.9 | 0.00 | 0.00 | 0.00 | 34 | 1015.0 |
| 20260504171934 | 24 | 54 | 3.2 | 3.2 | 0.00 | 0.00 | 0.00 | 33 | 1014.8 |
| 20260504171431 | 23 | 201 | 1.6 | 1.6 | 0.00 | 0.00 | 0.00 | 37 | 1015.2 |
| 20260504170928 | 23 | 224 | 4.8 | 8.0 | 0.00 | 0.00 | 0.00 | 37 | 1015.2 |
| 20260504170424 | 23 | 210 | 3.2 | 3.2 | 0.00 | 0.00 | 0.00 | 37 | 1015.1 |
| 20260504160343 | 22 | 301 | 4.8 | 8.0 | 0.00 | 0.00 | 0.00 | 46 | 1016.0 |